This is the latest recevied weather packets stored in our database for station/object KC9MWQ-13. If no packets are shown the sender has not sent any weather packets the latest 10 day(s).
| Time | Temp. | Humidity | Pressure | Rain* | Wind** | Luminosity | Snow |
|---|---|---|---|---|---|---|---|
| 1777956003 | 17.78° C | 72% | 1005.5 hPa | 0 mm | - | 0 W/m² | - |
| 1777955699 | 18.33° C | 72% | 1005.5 hPa | 0 mm | - | 0 W/m² | - |
| 1777955395 | 18.89° C | 70% | 1005.2 hPa | 0 mm | - | 0 W/m² | - |
| 1777955092 | 19.44° C | 68% | 1005 hPa | 0 mm | - | 0 W/m² | - |
| 1777954789 | 20° C | 66% | 1004.7 hPa | 0 mm | - | 0 W/m² | - |
| 1777954486 | 19.44° C | 65% | 1004.6 hPa | 0 mm | - | 0 W/m² | - |
| 1777954183 | 19.44° C | 67% | 1004.1 hPa | 0 mm | - | 0 W/m² | - |
| 1777953880 | 20° C | 66% | 1004.5 hPa | 0 mm | - | 0 W/m² | - |
| 1777953577 | 19.44° C | 65% | 1003.4 hPa | 0 mm | - | 0 W/m² | - |
| 1777953273 | 19.44° C | 66% | 1003.1 hPa | 0 mm | - | 0 W/m² | - |
| 1777952971 | 19.44° C | 66% | 1003.3 hPa | 0 mm | - | 0 W/m² | - |
| 1777952667 | 19.44° C | 66% | 1003.3 hPa | 0 mm | - | 0 W/m² | - |
| 1777952364 | 19.44° C | 66% | 1003.3 hPa | 0 mm | - | 0 W/m² | - |
| 1777952061 | 19.44° C | 66% | 1003.5 hPa | 0 mm | - | 0 W/m² | - |
| 1777951759 | 20° C | 66% | 1003.5 hPa | 0 mm | - | 0 W/m² | - |
| 1777951456 | 20° C | 66% | 1003.7 hPa | 0 mm | - | 0 W/m² | - |
| 1777951152 | 20° C | 66% | 1003.6 hPa | 0 mm | - | 0 W/m² | - |
| 1777950849 | 20° C | 66% | 1003.5 hPa | 0 mm | - | 0 W/m² | - |
| 1777950546 | 20° C | 66% | 1003.9 hPa | 0 mm | - | 0 W/m² | - |
| 1777950242 | 19.44° C | 66% | 1003.5 hPa | 0 mm | - | 0 W/m² | - |
| 1777949937 | 20° C | 66% | 1003.6 hPa | 0 mm | - | 0 W/m² | - |
| 1777949635 | 20° C | 66% | 1003.6 hPa | 0 mm | - | 0 W/m² | - |
| 1777949334 | 19.44° C | 66% | 1003.6 hPa | 0 mm | - | 0 W/m² | - |
| 1777949031 | 20° C | 67% | 1003.7 hPa | 0 mm | - | 0 W/m² | - |
| 1777948728 | 20° C | 66% | 1003.7 hPa | 0 mm | - | 0 W/m² | - |
* Rain latest hour (hover to see other rain measurements)
** Current wind speed in m/s (hover to see current wind gust speed)